Estación de Campanacura
Ultimos registro cada 15 minutos 73
| N° | Estación | Fecha / Hora | Temperatura | Humedad | Lluvia | Velocidad | Dirección | Radiación | Presion |
| 73 | Campanacura | 03-05-2026 18:00 | 15,8 | 62,1 | 0 | 0 | 65 | 0,6 | 1003,2 |
| 72 | Campanacura | 03-05-2026 17:45 | 16 | 62,2 | 0 | 0,5 | 59 | 6,9 | 1003 |
| 71 | Campanacura | 03-05-2026 17:30 | 16,2 | 62 | 0 | 0,5 | 56 | 10,6 | 1002,9 |
| 70 | Campanacura | 03-05-2026 17:15 | 16,4 | 61,9 | 0 | 0,5 | 56 | 18,1 | 1002,9 |
| 69 | Campanacura | 03-05-2026 17:00 | 16,7 | 61,5 | 0 | 0,5 | 53 | 23,1 | 1003 |
| 68 | Campanacura | 03-05-2026 16:45 | 16,8 | 61 | 0 | 0,5 | 53 | 31,9 | 1002,9 |
| 67 | Campanacura | 03-05-2026 16:30 | 17 | 60,3 | 0 | 0,5 | 59 | 30,6 | 1002,6 |
| 66 | Campanacura | 03-05-2026 16:15 | 17,4 | 59,1 | 0 | 1 | 51 | 55,6 | 1002,7 |
| 65 | Campanacura | 03-05-2026 16:00 | 17,9 | 58,6 | 0 | 1 | 69 | 149,4 | 1002,3 |
| 64 | Campanacura | 03-05-2026 15:45 | 18,1 | 57,4 | 0 | 1 | 73 | 213,1 | 1002,1 |
| 63 | Campanacura | 03-05-2026 15:30 | 18,7 | 57,8 | 0 | 1 | 76 | 310,6 | 1001,9 |
| 62 | Campanacura | 03-05-2026 15:15 | 17,2 | 61 | 0 | 1 | 65 | 221,9 | 1002,4 |
| 61 | Campanacura | 03-05-2026 15:00 | 17,3 | 61 | 0 | 0,5 | 65 | 224,4 | 1002,4 |
| 60 | Campanacura | 03-05-2026 14:45 | 16,8 | 60,5 | 0 | 0,5 | 66 | 199,4 | 1002,6 |
| 59 | Campanacura | 03-05-2026 14:30 | 16,6 | 60,3 | 0 | 0,5 | 62 | 174,4 | 1002,4 |
| 58 | Campanacura | 03-05-2026 14:15 | 17 | 58,7 | 0 | 0,5 | 21 | 209,4 | 1002,8 |
| 57 | Campanacura | 03-05-2026 14:00 | 17,3 | 57,5 | 0 | 0,5 | 4 | 251,9 | 1002,9 |
| 56 | Campanacura | 03-05-2026 13:45 | 16,7 | 57,1 | 0 | 0 | 358 | 198,1 | 1003,3 |
| 55 | Campanacura | 03-05-2026 13:30 | 16,2 | 58,1 | 0 | 0,5 | 355 | 185,6 | 1003,1 |
| 54 | Campanacura | 03-05-2026 13:15 | 16,4 | 56,5 | 0 | 0 | 337 | 200,6 | 1003,2 |
| 53 | Campanacura | 03-05-2026 13:00 | 16,4 | 57,5 | 0 | 0 | 334 | 251,9 | 1003,5 |
| 52 | Campanacura | 03-05-2026 12:45 | 16,3 | 59,9 | 0 | 0 | 338 | 351,9 | 1003,5 |
| 51 | Campanacura | 03-05-2026 12:30 | 15,6 | 61,9 | 0 | 0 | 338 | 230,6 | 1003,9 |
| 50 | Campanacura | 03-05-2026 12:15 | 15,2 | 62,7 | 0 | 0 | 340 | 254,4 | 1003,8 |
| 49 | Campanacura | 03-05-2026 12:00 | 13,7 | 62,6 | 0 | 0 | 345 | 244,4 | 1003,5 |
| 48 | Campanacura | 03-05-2026 11:45 | 13,4 | 62,7 | 0 | 0,5 | 338 | 200,6 | 1003,6 |
| 47 | Campanacura | 03-05-2026 11:30 | 12,8 | 62,5 | 0 | 0 | 306 | 196,9 | 1003,7 |
| 46 | Campanacura | 03-05-2026 11:15 | 11,9 | 57,9 | 0 | 0 | 306 | 269,4 | 1003,9 |
| 45 | Campanacura | 03-05-2026 11:00 | 11 | 54,4 | 0 | 0 | 303 | 233,1 | 1004,2 |
| 44 | Campanacura | 03-05-2026 10:45 | 10,1 | 51,8 | 0 | 0 | 300 | 228,1 | 1004,1 |
| 43 | Campanacura | 03-05-2026 10:30 | 9,4 | 48,6 | 0 | 0 | 300 | 218,1 | 1004,4 |
| 42 | Campanacura | 03-05-2026 10:15 | 8,7 | 41,5 | 0 | 0,5 | 300 | 213,1 | 1004,3 |
| 41 | Campanacura | 03-05-2026 10:00 | 8,4 | 42,2 | 0 | 0 | 300 | 165,6 | 1004,1 |
| 40 | Campanacura | 03-05-2026 09:45 | 8,4 | 39,1 | 0 | 0 | 303 | 271,9 | 1003,8 |
| 39 | Campanacura | 03-05-2026 09:30 | 7,8 | 32 | 0 | 0 | 15 | 300,6 | 1004,1 |
| 38 | Campanacura | 03-05-2026 09:15 | 6,6 | 27 | 0 | 0 | 45 | 270,6 | 1004 |
| 37 | Campanacura | 03-05-2026 09:00 | 5,2 | 27,9 | 0 | 0 | 45 | 189,4 | 1004 |
| 36 | Campanacura | 03-05-2026 08:45 | 3,3 | 29,7 | 0 | 0 | 45 | 46,9 | 1004,2 |
| 35 | Campanacura | 03-05-2026 08:30 | 3,1 | 29,9 | 0 | 0 | 45 | 60,6 | 1004 |
| 34 | Campanacura | 03-05-2026 08:15 | 2,6 | 30,7 | 0 | 0 | 45 | 68,1 | 1003,8 |
| 33 | Campanacura | 03-05-2026 08:00 | 1,4 | 32,1 | 0 | 0 | 45 | 45,6 | 1003,8 |
| 32 | Campanacura | 03-05-2026 07:45 | 0,9 | 32,9 | 0 | 0 | 45 | 26,9 | 1003,8 |
| 31 | Campanacura | 03-05-2026 07:30 | 0,5 | 33,2 | 0 | 0 | 45 | 6,9 | 1003,3 |
| 30 | Campanacura | 03-05-2026 07:15 | 0,4 | 33,6 | 0 | 0 | 45 | 0,6 | 1003,3 |
| 29 | Campanacura | 03-05-2026 07:00 | 0,5 | 33,8 | 0 | 0 | 45 | 0,6 | 1003,6 |
| 28 | Campanacura | 03-05-2026 06:45 | 0,4 | 34 | 0 | 0 | 45 | 0,6 | 1003,1 |
| 27 | Campanacura | 03-05-2026 06:30 | 0,9 | 33 | 0 | 0 | 45 | 0,6 | 1003,1 |
| 26 | Campanacura | 03-05-2026 06:15 | 1 | 33,3 | 0 | 0 | 45 | 0,6 | 1002,9 |
| 25 | Campanacura | 03-05-2026 06:00 | 0,8 | 33,5 | 0 | 0 | 45 | 0,6 | 1003,3 |
| 24 | Campanacura | 03-05-2026 05:45 | 0,1 | 34,4 | 0 | 0 | 45 | 0,6 | 1002,9 |
| 23 | Campanacura | 03-05-2026 05:30 | -0,4 | 35,4 | 0 | 0 | 45 | 0,6 | 1002,8 |
| 22 | Campanacura | 03-05-2026 05:15 | -0,9 | 36,3 | 0 | 0 | 45 | 0,6 | 1002,9 |
| 21 | Campanacura | 03-05-2026 05:00 | -0,5 | 35,6 | 0 | 0 | 45 | 0,6 | 1002,8 |
| 20 | Campanacura | 03-05-2026 04:45 | -0,6 | 36 | 0 | 0 | 45 | 0,6 | 1002,7 |
| 19 | Campanacura | 03-05-2026 04:30 | -0,1 | 35,6 | 0 | 0 | 45 | 0,6 | 1002,7 |
| 18 | Campanacura | 03-05-2026 04:15 | -0,1 | 35,8 | 0 | 0 | 45 | 0,6 | 1002,5 |
| 17 | Campanacura | 03-05-2026 04:00 | -0,2 | 36,3 | 0 | 0 | 45 | 0,6 | 1003,1 |
| 16 | Campanacura | 03-05-2026 03:45 | 0 | 35,9 | 0 | 0 | 45 | 0,6 | 1003,2 |
| 15 | Campanacura | 03-05-2026 03:30 | 0,7 | 35 | 0 | 0 | 45 | 0,6 | 1003,3 |
| 14 | Campanacura | 03-05-2026 03:15 | 0,7 | 35,4 | 0 | 0 | 45 | 0,6 | 1003,4 |
| 13 | Campanacura | 03-05-2026 03:00 | 0,6 | 35,4 | 0 | 0 | 45 | 0,6 | 1003,4 |
| 12 | Campanacura | 03-05-2026 02:45 | 1,3 | 34,5 | 0 | 0 | 45 | 0,6 | 1003,4 |
| 11 | Campanacura | 03-05-2026 02:30 | 1 | 35,9 | 0 | 0 | 45 | 0,6 | 1003,4 |
| 10 | Campanacura | 03-05-2026 02:15 | 1,1 | 36 | 0 | 0 | 45 | 0,6 | 1003,3 |
| 9 | Campanacura | 03-05-2026 02:00 | 1,6 | 35,2 | 0 | 0 | 45 | 0,6 | 1003,5 |
| 8 | Campanacura | 03-05-2026 01:45 | 1,2 | 36,8 | 0 | 0 | 45 | 0,6 | 1003,3 |
| 7 | Campanacura | 03-05-2026 01:30 | 2,3 | 35,3 | 0 | 0 | 45 | 0,6 | 1003,3 |
| 6 | Campanacura | 03-05-2026 01:15 | 2,1 | 36 | 0 | 0 | 45 | 0,6 | 1003,3 |
| 5 | Campanacura | 03-05-2026 01:00 | 1,9 | 37,4 | 0 | 0 | 45 | 0,6 | 1003,5 |
| 4 | Campanacura | 03-05-2026 00:45 | 2,5 | 37,1 | 0 | 0 | 45 | 0,6 | 1003,6 |
| 3 | Campanacura | 03-05-2026 00:30 | 3,1 | 36,6 | 0 | 0 | 45 | 0,6 | 1003,4 |
| 2 | Campanacura | 03-05-2026 00:15 | 3,6 | 35,1 | 0 | 0 | 45 | 0,6 | 1003,7 |
| 1 | Campanacura | 03-05-2026 00:00 | 3,2 | 37,1 | 0 | 0 | 45 | 0,6 | 1003,7 |